Date String (YYYY-MM-DD hh:mm:ss) UTC,Instrument flags,absolute air pressure of the measurement (hPa),sample flow rate (lpm),inlet stack bypass flow (lpm),air temperature of the measurement (°C),ambient temperature measured by the external sensor (°C),aerosol sample conditioner tube jacket temperature (°C),OPC LED temperature (°C),internal box temperature (°C),relative humidity of the measurement (%),span deviation,mass concentration of particles derived from Lorenz-Mie calculation of OPC scattering (μg/m³),mass concentration of particles derived from Lorenz-Mie calculation of OPC scattering (μg/m³),mass concentration of particles derived from Lorenz-Mie calculation of OPC scattering (μg/m³)
DateTimeUTC,F1_M11,P_M11,Q1_M11,Q2_M11,T1_M11,T2_M11,T3_M11,T4_M11,T5_M11,U1_M11,ZSPAN_M11,X0_M11,X2_M11,X1_M11
2023-06-22 10:00:00,SystemResetWarning,0833.5,5.00,000.00,030.3,028.7,000.0,038.8,031.8,31.9,0000.0,0008.16,0004.11,0003.43
2023-06-22 10:01:00,SystemResetWarning,0833.5,4.99,000.00,030.3,028.7,000.0,038.8,031.8,31.8,0000.0,0008.18,0004.09,0003.42
2023-06-22 10:02:00,SystemResetWarning,0833.5,5.00,000.00,030.3,028.7,000.0,038.9,031.8,31.8,0000.0,0008.04,0004.04,0003.39
2023-06-22 10:03:00,SystemResetWarning,0833.6,5.00,000.00,030.3,028.7,000.0,038.9,031.8,31.8,0000.0,0008.65,0003.99,0003.37
2023-06-22 10:04:00,SystemResetWarning,0833.5,5.01,000.00,030.4,028.7,000.0,038.9,031.8,31.8,0000.0,0008.28,0003.91,0003.35
2023-06-22 10:05:00,SystemResetWarning,0833.4,5.00,000.00,030.4,028.8,000.0,038.9,031.8,31.8,0000.0,0008.33,0003.90,0003.35
2023-06-22 10:06:00,SystemResetWarning,0833.4,5.01,000.00,030.4,028.8,000.0,038.9,031.9,31.8,0000.0,0008.22,0003.87,0003.33
2023-06-22 10:07:00,SystemResetWarning,0833.4,5.00,000.00,030.4,028.8,000.0,038.9,031.8,31.7,0000.0,0008.07,0003.81,0003.31
2023-06-22 10:08:00,SystemResetWarning,0833.4,4.99,000.00,030.4,028.8,000.0,038.9,031.8,31.7,0000.0,0008.03,0003.81,0003.30
2023-06-22 10:09:00,SystemResetWarning,0833.4,4.99,000.00,030.4,028.8,000.0,038.9,031.9,31.7,0000.0,0008.41,0003.79,0003.30
2023-06-22 10:10:00,SystemResetWarning,0833.4,5.01,000.00,030.4,028.8,000.0,038.9,031.9,31.7,0000.0,0008.83,0003.79,0003.28
2023-06-22 10:11:00,SystemResetWarning,0833.4,5.01,000.00,030.4,028.8,000.0,038.9,031.8,31.8,0000.0,0009.52,0003.81,0003.28
2023-06-22 10:12:00,SystemResetWarning,0833.4,5.00,000.00,030.4,028.7,000.0,039.0,031.8,31.8,0000.0,0009.69,0003.80,0003.28
2023-06-22 10:13:00,SystemResetWarning,0833.4,4.98,000.00,030.3,028.7,000.0,039.0,031.7,31.8,0000.0,0009.64,0003.77,0003.27
2023-06-22 10:14:00,SystemResetWarning,0833.3,4.99,000.00,030.3,028.7,000.0,039.0,031.7,31.8,0000.0,0009.92,0003.76,0003.26
2023-06-22 10:15:00,SystemResetWarning,0833.3,5.00,000.00,030.3,028.7,000.0,039.0,031.7,31.8,0000.0,0009.44,0003.77,0003.26
2023-06-22 10:16:00,SystemResetWarning,0833.3,5.01,000.00,030.3,028.7,000.0,039.0,031.7,31.9,0000.0,0009.28,0003.72,0003.24
2023-06-22 10:17:00,SystemResetWarning,0833.3,5.00,000.00,030.3,028.7,000.0,039.0,031.7,31.9,0000.0,0009.24,0003.71,0003.23
2023-06-22 10:18:00,SystemResetWarning,0833.4,5.00,000.00,030.3,028.7,000.0,039.0,031.7,31.9,0000.0,0009.32,0003.75,0003.23
2023-06-22 10:19:00,SystemResetWarning,0833.4,5.00,000.00,030.3,028.7,000.0,039.0,031.7,32.0,0000.0,0009.20,0003.73,0003.22
2023-06-22 10:20:00,SystemResetWarning,0833.4,4.99,000.00,030.3,028.7,000.0,039.0,031.7,32.0,0000.0,0008.86,0003.71,0003.22
2023-06-22 10:21:00,SystemResetWarning,0833.4,5.00,000.00,030.3,028.7,000.0,039.0,031.7,31.9,0000.0,0008.32,0003.69,0003.21
2023-06-22 10:22:00,SystemResetWarning,0833.4,5.00,000.00,030.3,028.7,000.0,039.0,031.7,32.0,0000.0,0007.65,0003.66,0003.21
2023-06-22 10:23:00,SystemResetWarning,0833.4,5.00,000.00,030.3,028.7,000.0,039.0,031.8,32.0,0000.0,0007.20,0003.66,0003.22
2023-06-22 10:24:00,SystemResetWarning,0833.5,5.00,000.00,030.3,028.7,000.0,039.0,031.7,32.0,0000.0,0007.26,0003.71,0003.24
2023-06-22 10:25:00,SystemResetWarning,0833.5,5.00,000.00,030.3,028.7,000.0,039.0,031.7,31.9,0000.0,0006.07,0003.74,0003.27
2023-06-22 10:26:00,SystemResetWarning,0833.4,5.01,000.00,030.3,028.7,000.0,039.0,031.8,31.8,0000.0,0006.26,0003.77,0003.29
2023-06-22 10:27:00,SystemResetWarning,0833.4,5.01,000.00,030.3,028.7,000.0,039.0,031.8,31.8,0000.0,0006.47,0003.84,0003.32
2023-06-22 10:28:00,SystemResetWarning,0833.4,5.01,000.00,030.3,028.7,000.0,039.0,031.8,31.8,0000.0,0006.56,0003.86,0003.34
2023-06-22 10:29:00,SystemResetWarning,0833.4,4.99,000.00,030.3,028.7,000.0,039.0,031.7,31.8,0000.0,0006.81,0003.92,0003.37
2023-06-22 10:30:00,SystemResetWarning,0833.4,4.99,000.00,030.3,028.7,000.0,039.0,031.7,31.7,0000.0,0007.00,0003.97,0003.39
2023-06-22 10:31:00,SystemResetWarning,0833.4,5.00,000.00,030.3,028.7,000.0,039.0,031.8,31.6,0000.0,0006.93,0003.98,0003.41
2023-06-22 10:32:00,SystemResetWarning,0833.4,5.01,000.00,030.3,028.7,000.0,039.0,031.8,31.5,0000.0,0007.17,0004.04,0003.45
2023-06-22 10:33:00,SystemResetWarning,0833.4,5.01,000.00,030.3,028.7,000.0,039.0,031.7,31.4,0000.0,0007.58,0004.12,0003.49
2023-06-22 10:34:00,SystemResetWarning,0833.4,5.01,000.00,030.3,028.7,000.0,039.0,031.7,31.4,0000.0,0007.93,0004.20,0003.52
2023-06-22 10:35:00,SystemResetWarning,0833.4,5.00,000.00,030.3,028.7,000.0,039.0,031.7,31.5,0000.0,0008.12,0004.22,0003.52
2023-06-22 10:36:00,SystemResetWarning,0833.4,4.99,000.00,030.3,028.7,000.0,039.0,031.7,31.2,0000.0,0008.39,0004.25,0003.51
2023-06-22 10:37:00,SystemResetWarning,0833.4,4.99,000.00,030.3,028.7,000.0,039.0,031.7,31.1,0000.0,0008.34,0004.23,0003.51
2023-06-22 10:38:00,SystemResetWarning,0833.4,5.00,000.00,030.3,028.7,000.0,039.0,031.7,31.0,0000.0,0008.83,0004.21,0003.51
2023-06-22 10:39:00,SystemResetWarning,0833.4,5.01,000.00,030.3,028.7,000.0,039.0,031.6,31.1,0000.0,0009.17,0004.21,0003.51
2023-06-22 10:40:00,SystemResetWarning,0833.4,5.00,000.00,030.3,028.7,000.0,039.0,031.6,30.9,0000.0,0009.01,0004.17,0003.50
2023-06-22 10:41:00,SystemResetWarning,0833.4,5.01,000.00,030.2,028.7,000.0,038.9,031.6,30.9,0000.0,0008.91,0004.15,0003.50
2023-06-22 10:42:00,SystemResetWarning,0833.4,5.01,000.00,030.2,028.7,000.0,038.9,031.6,30.8,0000.0,0009.22,0004.18,0003.49
2023-06-22 10:43:00,SystemResetWarning,0833.4,4.99,000.00,030.2,028.6,000.0,038.9,031.5,30.7,0000.0,0009.58,0004.17,0003.48
2023-06-22 10:44:00,SystemResetWarning,0833.3,4.99,000.00,030.2,028.6,000.0,038.9,031.6,30.7,0000.0,0009.30,0004.11,0003.46
2023-06-22 10:45:00,SystemResetWarning,0833.3,5.00,000.00,030.2,028.6,000.0,038.9,031.5,30.7,0000.0,0009.02,0004.04,0003.44
2023-06-22 10:46:00,SystemResetWarning,0833.3,5.00,000.00,030.2,028.6,000.0,038.9,031.5,30.7,0000.0,0008.88,0004.03,0003.44
2023-06-22 10:47:00,SystemResetWarning,0833.3,5.00,000.00,030.2,028.6,000.0,038.9,031.5,30.6,0000.0,0008.62,0004.00,0003.43
2023-06-22 10:48:00,SystemResetWarning,0833.3,4.99,000.00,030.2,028.6,000.0,038.9,031.5,30.2,0000.0,0008.57,0003.98,0003.42
2023-06-22 10:49:00,SystemResetWarning,0833.3,5.00,000.00,030.2,028.6,000.0,038.9,031.5,30.4,0000.0,0008.40,0004.00,0003.43
2023-06-22 10:50:00,SystemResetWarning,0833.2,5.00,000.00,030.2,028.6,000.0,038.9,031.5,30.5,0000.0,0007.78,0004.00,0003.43
2023-06-22 10:51:00,SystemResetWarning,0833.2,5.00,000.00,030.2,028.6,000.0,038.9,031.5,30.4,0000.0,0007.77,0003.99,0003.44
2023-06-22 10:52:00,SystemResetWarning,0833.3,5.00,000.00,030.1,028.6,000.0,038.9,031.4,30.5,0000.0,0007.79,0004.00,0003.44
2023-06-22 10:53:00,SystemResetWarning,0833.2,5.00,000.00,030.1,028.6,000.0,038.9,031.5,30.4,0000.0,0007.73,0003.97,0003.43
2023-06-22 10:54:00,SystemResetWarning,0833.2,5.01,000.00,030.1,028.6,000.0,038.9,031.5,30.1,0000.0,0007.01,0003.94,0003.43
2023-06-22 10:55:00,SystemResetWarning,0833.2,5.00,000.00,030.1,028.5,000.0,038.9,031.4,30.2,0000.0,0006.78,0003.92,0003.43
2023-06-22 10:56:00,SystemResetWarning,0833.2,4.99,000.00,030.1,028.5,000.0,038.8,031.4,30.2,0000.0,0006.67,0003.90,0003.42
2023-06-22 10:57:00,SystemResetWarning,0833.2,4.99,000.00,030.1,028.5,000.0,038.8,031.4,30.0,0000.0,0006.41,0003.85,0003.40
2023-06-22 10:58:00,SystemResetWarning,0833.2,5.00,000.00,030.1,028.5,000.0,038.8,031.4,30.2,0000.0,0006.30,0003.83,0003.40
2023-06-22 10:59:00,SystemResetWarning,0833.2,5.00,000.00,030.1,028.5,000.0,038.8,031.4,30.4,0000.0,0006.44,0003.85,0003.40
